Time,TemperatureF,DewpointF,PressureIn,WindDirection,WindDirectionDegrees,WindSpeedMPH,WindSpeedGustMPH,Humidity,HourlyPrecipIn,Conditions,Clouds,dailyrainin,SoftwareType,DateUTC
2013-04-08 00:00:00,50.0,44.6,29.92,South,180,8.1,-999.9,82,-99.99,,,-99.99,,2013-04-08 04:00:00,
2013-04-08 00:04:00,50.0,44.6,29.93,South,182,6.9,-999.9,82,-99.99,,,-99.99,,2013-04-08 04:04:00,
2013-04-08 00:06:00,50.0,44.6,29.93,South,182,6.9,-999.9,82,-99.99,,,-99.99,,2013-04-08 04:06:00,
2013-04-08 00:12:00,50.0,44.6,29.92,South,177,9.2,-999.9,82,-99.99,,,-99.99,,2013-04-08 04:12:00,
2013-04-08 00:16:00,50.0,44.6,29.92,South,177,9.2,-999.9,82,-99.99,,,-99.99,,2013-04-08 04:16:00,
2013-04-08 00:24:00,50.0,44.6,29.92,South,180,11.5,-999.9,82,-99.99,,,-99.99,,2013-04-08 04:24:00,
2013-04-08 00:34:00,50.0,44.6,29.92,South,179,6.9,-999.9,82,-99.99,,,-99.99,,2013-04-08 04:34:00,
2013-04-08 00:40:00,50.0,44.6,29.92,South,179,6.9,-999.9,82,-99.99,,,-99.99,,2013-04-08 04:40:00,
2013-04-08 00:46:00,50.0,44.6,29.92,South,183,5.8,-999.9,82,-99.99,,,-99.99,,2013-04-08 04:46:00,
2013-04-08 00:48:00,50.0,44.6,29.92,South,183,5.8,-999.9,82,-99.99,,,-99.99,,2013-04-08 04:48:00,
2013-04-08 00:54:00,50.0,44.6,29.92,SSW,194,5.8,-999.9,82,-99.99,,,-99.99,,2013-04-08 04:54:00,
2013-04-08 01:00:00,50.0,44.6,29.92,SSW,194,5.8,-999.9,82,-99.99,,,-99.99,,2013-04-08 05:00:00,
2013-04-08 01:54:00,50.0,44.6,29.90,South,170,6.9,-999.9,82,-99.99,,,-99.99,,2013-04-08 05:54:00,
2013-04-08 02:00:00,50.0,44.6,29.90,South,170,6.9,-999.9,82,-99.99,,,-99.99,,2013-04-08 06:00:00,
2013-04-08 02:12:00,48.2,44.6,29.90,South,169,2.3,-999.9,87,-99.99,,,-99.99,,2013-04-08 06:12:00,
2013-04-08 02:18:00,48.2,44.6,29.90,South,169,2.3,-999.9,87,-99.99,,,-99.99,,2013-04-08 06:18:00,
2013-04-08 02:24:00,48.2,44.6,29.90,SSW,211,0.0,-999.9,87,-99.99,,,-99.99,,2013-04-08 06:24:00,
2013-04-08 02:30:00,48.2,44.6,29.90,SSW,211,0.0,-999.9,87,-99.99,,,-99.99,,2013-04-08 06:30:00,
2013-04-08 02:42:00,48.2,44.6,29.90,North,0,0.0,-999.9,87,-99.99,,,-99.99,,2013-04-08 06:42:00,
2013-04-08 02:48:00,48.2,44.6,29.90,North,0,0.0,-999.9,87,-99.99,,,-99.99,,2013-04-08 06:48:00,
2013-04-08 02:54:00,48.2,44.6,29.90,North,0,0.0,-999.9,87,-99.99,,,-99.99,,2013-04-08 06:54:00,
2013-04-08 03:00:00,48.2,44.6,29.90,North,0,0.0,-999.9,87,-99.99,,,-99.99,,2013-04-08 07:00:00,
2013-04-08 03:06:00,48.2,44.6,29.90,North,0,0.0,-999.9,87,-99.99,,,-99.99,,2013-04-08 07:06:00,
2013-04-08 03:14:00,48.2,44.6,29.89,North,0,0.0,-999.9,87,-99.99,,,-99.99,,2013-04-08 07:14:00,
2013-04-08 03:20:00,48.2,44.6,29.89,North,0,0.0,-999.9,87,-99.99,,,-99.99,,2013-04-08 07:20:00,
2013-04-08 03:26:00,48.2,44.6,29.89,North,0,0.0,-999.9,87,-99.99,,,-99.99,,2013-04-08 07:26:00,
2013-04-08 03:36:00,48.2,42.8,29.90,North,0,0.0,-999.9,82,-99.99,,,-99.99,,2013-04-08 07:36:00,
2013-04-08 03:44:00,48.2,42.8,29.90,NE,44,5.8,-999.9,82,-99.99,,,-99.99,,2013-04-08 07:44:00,
2013-04-08 03:50:00,48.2,42.8,29.90,NE,44,5.8,-999.9,82,-99.99,,,-99.99,,2013-04-08 07:50:00,
2013-04-08 04:04:00,48.2,44.6,29.90,NE,49,0.0,-999.9,87,-99.99,,,-99.99,,2013-04-08 08:04:00,
2013-04-08 04:10:00,48.2,44.6,29.90,NE,49,0.0,-999.9,87,-99.99,,,-99.99,,2013-04-08 08:10:00,
2013-04-08 04:16:00,48.2,44.6,29.90,North,0,0.0,-999.9,87,-99.99,,,-99.99,,2013-04-08 08:16:00,
2013-04-08 04:22:00,48.2,44.6,29.90,ESE,106,1.2,-999.9,87,-99.99,,,-99.99,,2013-04-08 08:22:00,
2013-04-08 04:28:00,48.2,44.6,29.90,ESE,106,1.2,-999.9,87,-99.99,,,-99.99,,2013-04-08 08:28:00,
2013-04-08 04:34:00,48.2,44.6,29.90,North,0,0.0,-999.9,87,-99.99,,,-99.99,,2013-04-08 08:34:00,
2013-04-08 04:40:00,48.2,44.6,29.90,North,0,0.0,-999.9,87,-99.99,,,-99.99,,2013-04-08 08:40:00,
2013-04-08 04:46:00,46.4,42.8,29.90,North,0,0.0,-999.9,87,-99.99,,,-99.99,,2013-04-08 08:46:00,
2013-04-08 04:54:00,46.4,42.8,29.90,SW,214,2.3,-999.9,87,-99.99,,,-99.99,,2013-04-08 08:54:00,
2013-04-08 05:00:00,46.4,42.8,29.90,SW,214,2.3,-999.9,87,-99.99,,,-99.99,,2013-04-08 09:00:00,
2013-04-08 05:06:00,46.4,42.8,29.90,SW,218,3.5,-999.9,87,-99.99,,,-99.99,,2013-04-08 09:06:00,
2013-04-08 05:14:00,46.4,42.8,29.90,SW,220,4.6,-999.9,87,-99.99,,,-99.99,,2013-04-08 09:14:00,
2013-04-08 05:20:00,46.4,42.8,29.90,SW,220,4.6,-999.9,87,-99.99,,,-99.99,,2013-04-08 09:20:00,
2013-04-08 05:26:00,46.4,42.8,29.90,North,0,0.0,-999.9,87,-99.99,,,-99.99,,2013-04-08 09:26:00,
2013-04-08 05:34:00,46.4,42.8,29.90,North,0,0.0,-999.9,87,-99.99,,,-99.99,,2013-04-08 09:34:00,
2013-04-08 05:40:00,46.4,42.8,29.90,North,0,0.0,-999.9,87,-99.99,,,-99.99,,2013-04-08 09:40:00,
2013-04-08 05:46:00,46.4,42.8,29.90,North,0,0.0,-999.9,87,-99.99,,,-99.99,,2013-04-08 09:46:00,
2013-04-08 05:52:00,46.4,42.8,29.91,North,0,0.0,-999.9,87,-99.99,,,-99.99,,2013-04-08 09:52:00,
2013-04-08 05:58:00,46.4,42.8,29.91,North,0,0.0,-999.9,87,-99.99,,,-99.99,,2013-04-08 09:58:00,
2013-04-08 06:06:00,46.4,42.8,29.91,North,0,0.0,-999.9,87,-99.99,,,-99.99,,2013-04-08 10:06:00,
2013-04-08 06:14:00,48.2,44.6,29.91,North,0,0.0,-999.9,87,-99.99,,,-99.99,,2013-04-08 10:14:00,
2013-04-08 06:20:00,48.2,44.6,29.91,North,0,0.0,-999.9,87,-99.99,,,-99.99,,2013-04-08 10:20:00,
2013-04-08 06:26:00,46.4,42.8,29.92,North,0,0.0,-999.9,87,-99.99,,,-99.99,,2013-04-08 10:26:00,
2013-04-08 06:34:00,46.4,42.8,29.92,ENE,69,0.0,-999.9,87,-99.99,,,-99.99,,2013-04-08 10:34:00,
2013-04-08 06:40:00,46.4,42.8,29.92,ENE,69,0.0,-999.9,87,-99.99,,,-99.99,,2013-04-08 10:40:00,
2013-04-08 06:46:00,46.4,42.8,29.93,North,4,1.2,-999.9,87,-99.99,,,-99.99,,2013-04-08 10:46:00,
2013-04-08 06:54:00,48.2,44.6,29.93,North,0,0.0,-999.9,87,-99.99,,,-99.99,,2013-04-08 10:54:00,
2013-04-08 07:00:00,48.2,44.6,29.93,North,0,0.0,-999.9,87,-99.99,,,-99.99,,2013-04-08 11:00:00,
2013-04-08 07:06:00,48.2,44.6,29.94,NE,40,4.6,-999.9,87,-99.99,,,-99.99,,2013-04-08 11:06:00,
2013-04-08 07:14:00,48.2,44.6,29.95,NE,39,5.8,-999.9,87,-99.99,,,-99.99,,2013-04-08 11:14:00,
2013-04-08 07:20:00,48.2,44.6,29.95,NE,39,5.8,-999.9,87,-99.99,,,-99.99,,2013-04-08 11:20:00,
2013-04-08 07:26:00,48.2,44.6,29.95,NNE,28,0.0,-999.9,87,-99.99,,,-99.99,,2013-04-08 11:26:00,
2013-04-08 07:34:00,50.0,44.6,29.95,NE,40,0.0,-999.9,82,-99.99,,,-99.99,,2013-04-08 11:34:00,
2013-04-08 07:40:00,50.0,44.6,29.95,NE,40,0.0,-999.9,82,-99.99,,,-99.99,,2013-04-08 11:40:00,
2013-04-08 07:46:00,50.0,44.6,29.95,North,0,0.0,-999.9,82,-99.99,,,-99.99,,2013-04-08 11:46:00,
2013-04-08 07:54:00,50.0,44.6,29.96,ESE,115,0.0,-999.9,82,-99.99,,,-99.99,,2013-04-08 11:54:00,
2013-04-08 08:00:00,50.0,44.6,29.96,North,0,0.0,-999.9,82,-99.99,,,-99.99,,2013-04-08 12:00:00,
2013-04-08 08:06:00,50.0,44.6,29.96,North,0,0.0,-999.9,82,-99.99,,,-99.99,,2013-04-08 12:06:00,
2013-04-08 08:14:00,50.0,44.6,29.96,North,0,0.0,-999.9,82,-99.99,,,-99.99,,2013-04-08 12:14:00,
2013-04-08 08:20:00,50.0,44.6,29.96,North,0,0.0,-999.9,82,-99.99,,,-99.99,,2013-04-08 12:20:00,
2013-04-08 08:26:00,51.8,46.4,29.96,North,0,0.0,-999.9,82,-99.99,,,-99.99,,2013-04-08 12:26:00,
2013-04-08 08:32:00,51.8,46.4,29.96,NE,40,5.8,-999.9,82,-99.99,,,-99.99,,2013-04-08 12:32:00,
2013-04-08 08:38:00,51.8,46.4,29.96,NE,40,5.8,-999.9,82,-99.99,,,-99.99,,2013-04-08 12:38:00,
2013-04-08 08:46:00,51.8,46.4,29.96,ENE,71,1.2,-999.9,82,-99.99,,,-99.99,,2013-04-08 12:46:00,
2013-04-08 08:52:00,53.6,46.4,29.96,ENE,59,2.3,-999.9,77,-99.99,,,-99.99,,2013-04-08 12:52:00,
2013-04-08 08:58:00,53.6,46.4,29.96,ENE,59,2.3,-999.9,77,-99.99,,,-99.99,,2013-04-08 12:58:00,
2013-04-08 09:06:00,53.6,46.4,29.95,ENE,67,3.5,-999.9,77,-99.99,,,-99.99,,2013-04-08 13:06:00,
2013-04-08 09:12:00,50.0,44.6,29.95,NE,54,9.2,-999.9,82,-99.99,,,-99.99,,2013-04-08 13:12:00,
2013-04-08 09:18:00,50.0,44.6,29.95,NE,54,9.2,-999.9,82,-99.99,,,-99.99,,2013-04-08 13:18:00,
2013-04-08 09:24:00,50.0,44.6,29.96,ENE,61,8.1,-999.9,82,-99.99,,,-99.99,,2013-04-08 13:24:00,
2013-04-08 09:30:00,50.0,44.6,29.96,ENE,61,8.1,-999.9,82,-99.99,,,-99.99,,2013-04-08 13:30:00,
2013-04-08 09:36:00,51.8,44.6,29.95,ENE,59,9.2,-999.9,76,-99.99,,,-99.99,,2013-04-08 13:36:00,
2013-04-08 09:44:00,53.6,44.6,29.95,East,84,3.5,-999.9,72,-99.99,,,-99.99,,2013-04-08 13:44:00,
2013-04-08 09:50:00,53.6,44.6,29.95,East,84,3.5,-999.9,72,-99.99,,,-99.99,,2013-04-08 13:50:00,
2013-04-08 09:56:00,55.4,44.6,29.96,East,88,2.3,-999.9,67,-99.99,,,-99.99,,2013-04-08 13:56:00,
2013-04-08 10:04:00,57.2,44.6,29.96,SE,125,4.6,-999.9,63,-99.99,,,-99.99,,2013-04-08 14:04:00,
2013-04-08 10:10:00,57.2,44.6,29.96,SE,125,4.6,-999.9,63,-99.99,,,-99.99,,2013-04-08 14:10:00,
2013-04-08 10:16:00,57.2,44.6,29.96,ESE,113,1.2,-999.9,63,-99.99,,,-99.99,,2013-04-08 14:16:00,
2013-04-08 10:24:00,59.0,44.6,29.96,North,0,0.0,-999.9,59,-99.99,,,-99.99,,2013-04-08 14:24:00,
2013-04-08 10:34:00,60.8,42.8,29.96,NNW,343,15.0,-999.9,52,-99.99,,,-99.99,,2013-04-08 14:34:00,
2013-04-08 10:40:00,60.8,42.8,29.96,NNW,343,15.0,-999.9,52,-99.99,,,-99.99,,2013-04-08 14:40:00,
2013-04-08 10:46:00,59.0,41.0,29.96,NNW,345,11.5,-999.9,51,-99.99,,,-99.99,,2013-04-08 14:46:00,
2013-04-08 10:52:00,60.8,41.0,29.96,NNW,341,12.7,-999.9,48,-99.99,,,-99.99,,2013-04-08 14:52:00,
2013-04-08 10:58:00,60.8,41.0,29.96,NNW,341,12.7,-999.9,48,-99.99,,,-99.99,,2013-04-08 14:58:00,
2013-04-08 11:04:00,60.8,41.0,29.95,NNW,346,4.6,-999.9,48,-99.99,,,-99.99,,2013-04-08 15:04:00,
2013-04-08 11:14:00,60.8,39.2,29.95,NNW,341,4.6,-999.9,45,-99.99,,,-99.99,,2013-04-08 15:14:00,
2013-04-08 11:20:00,60.8,39.2,29.95,NNW,341,4.6,-999.9,45,-99.99,,,-99.99,,2013-04-08 15:20:00,
2013-04-08 11:26:00,62.6,41.0,29.95,NNE,30,8.1,-999.9,45,-99.99,,,-99.99,,2013-04-08 15:26:00,
2013-04-08 11:32:00,62.6,41.0,29.95,NNW,348,11.5,-999.9,45,-99.99,,,-99.99,,2013-04-08 15:32:00,
2013-04-08 11:38:00,62.6,41.0,29.95,NNW,348,11.5,-999.9,45,-99.99,,,-99.99,,2013-04-08 15:38:00,
2013-04-08 11:44:00,64.4,41.0,29.95,North,1,6.9,-999.9,42,-99.99,,,-99.99,,2013-04-08 15:44:00,
2013-04-08 11:50:00,64.4,41.0,29.95,North,1,6.9,-999.9,42,-99.99,,,-99.99,,2013-04-08 15:50:00,
2013-04-08 11:56:00,60.8,42.8,29.95,SE,145,13.8,-999.9,52,-99.99,,,-99.99,,2013-04-08 15:56:00,
2013-04-08 12:06:00,60.8,42.8,29.95,SE,133,9.2,-999.9,52,-99.99,,,-99.99,,2013-04-08 16:06:00,
2013-04-08 12:12:00,60.8,42.8,29.95,SE,142,12.7,-999.9,52,-99.99,,,-99.99,,2013-04-08 16:12:00,
2013-04-08 12:18:00,60.8,42.8,29.95,SE,142,12.7,-999.9,52,-99.99,,,-99.99,,2013-04-08 16:18:00,
2013-04-08 12:24:00,62.6,42.8,29.95,SE,134,6.9,-999.9,48,-99.99,,,-99.99,,2013-04-08 16:24:00,
2013-04-08 12:30:00,62.6,41.0,29.95,SE,146,10.4,-999.9,45,-99.99,,,-99.99,,2013-04-08 16:30:00,
2013-04-08 12:36:00,62.6,41.0,29.95,SE,146,10.4,-999.9,45,-99.99,,,-99.99,,2013-04-08 16:36:00,
2013-04-08 12:44:00,64.4,41.0,29.95,SE,126,3.5,-999.9,42,-99.99,,,-99.99,,2013-04-08 16:44:00,
2013-04-08 12:50:00,64.4,41.0,29.95,SE,126,3.5,-999.9,42,-99.99,,,-99.99,,2013-04-08 16:50:00,
2013-04-08 12:56:00,64.4,39.2,29.94,ESE,109,0.0,-999.9,40,-99.99,,,-99.99,,2013-04-08 16:56:00,
2013-04-08 13:06:00,66.2,39.2,29.94,SSE,162,6.9,-999.9,37,-99.99,,,-99.99,,2013-04-08 17:06:00,
2013-04-08 13:14:00,66.2,39.2,29.93,SSE,147,8.1,-999.9,37,-99.99,,,-99.99,,2013-04-08 17:14:00,
2013-04-08 13:20:00,66.2,39.2,29.93,SSE,147,8.1,-999.9,37,-99.99,,,-99.99,,2013-04-08 17:20:00,
2013-04-08 13:26:00,68.0,41.0,29.93,East,86,2.3,-999.9,37,-99.99,,,-99.99,,2013-04-08 17:26:00,
2013-04-08 13:34:00,68.0,39.2,29.92,SSE,166,5.8,-999.9,35,-99.99,,,-99.99,,2013-04-08 17:34:00,
2013-04-08 13:46:00,68.0,39.2,29.92,SE,131,5.8,-999.9,35,-99.99,,,-99.99,,2013-04-08 17:46:00,
2013-04-08 13:54:00,68.0,37.4,29.92,SE,128,4.6,-999.9,33,-99.99,,,-99.99,,2013-04-08 17:54:00,
2013-04-08 14:00:00,68.0,37.4,29.92,SE,128,4.6,-999.9,33,-99.99,,,-99.99,,2013-04-08 18:00:00,
2013-04-08 14:06:00,71.6,39.2,29.91,SSE,156,2.3,-999.9,31,-99.99,,,-99.99,,2013-04-08 18:06:00,
2013-04-08 14:14:00,71.6,39.2,29.91,SSE,156,2.3,-999.9,31,-99.99,,,-99.99,,2013-04-08 18:14:00,
2013-04-08 14:20:00,71.6,39.2,29.91,SSE,156,2.3,-999.9,31,-99.99,,,-99.99,,2013-04-08 18:20:00,
2013-04-08 14:26:00,71.6,39.2,29.90,East,82,1.2,-999.9,31,-99.99,,,-99.99,,2013-04-08 18:26:00,
2013-04-08 14:32:00,73.4,37.4,29.90,South,171,3.5,-999.9,27,-99.99,,,-99.99,,2013-04-08 18:32:00,
2013-04-08 14:38:00,73.4,37.4,29.90,South,171,3.5,-999.9,27,-99.99,,,-99.99,,2013-04-08 18:38:00,
2013-04-08 14:46:00,71.6,39.2,29.90,South,185,4.6,-999.9,31,-99.99,,,-99.99,,2013-04-08 18:46:00,
2013-04-08 14:52:00,71.6,39.2,29.90,SW,222,11.5,-999.9,31,-99.99,,,-99.99,,2013-04-08 18:52:00,
2013-04-08 14:58:00,71.6,39.2,29.90,SW,222,11.5,-999.9,31,-99.99,,,-99.99,,2013-04-08 18:58:00,
2013-04-08 15:06:00,71.6,39.2,29.89,SSW,213,2.3,-999.9,31,-99.99,,,-99.99,,2013-04-08 19:06:00,
2013-04-08 15:14:00,71.6,39.2,29.89,ESE,119,3.5,-999.9,31,-99.99,,,-99.99,,2013-04-08 19:14:00,
2013-04-08 15:20:00,71.6,39.2,29.89,ESE,119,3.5,-999.9,31,-99.99,,,-99.99,,2013-04-08 19:20:00,
2013-04-08 15:26:00,73.4,39.2,29.89,SE,134,4.6,-999.9,29,-99.99,,,-99.99,,2013-04-08 19:26:00,
2013-04-08 15:34:00,73.4,39.2,29.88,South,183,2.3,-999.9,29,-99.99,,,-99.99,,2013-04-08 19:34:00,
2013-04-08 15:40:00,73.4,39.2,29.88,South,183,2.3,-999.9,29,-99.99,,,-99.99,,2013-04-08 19:40:00,
2013-04-08 15:46:00,75.2,39.2,29.88,SW,218,8.1,-999.9,27,-99.99,,,-99.99,,2013-04-08 19:46:00,
2013-04-08 15:54:00,71.6,41.0,29.88,South,188,5.8,-999.9,33,-99.99,,,-99.99,,2013-04-08 19:54:00,
2013-04-08 16:00:00,73.4,41.0,29.88,South,178,8.1,-999.9,31,-99.99,,,-99.99,,2013-04-08 20:00:00,
2013-04-08 16:06:00,73.4,41.0,29.88,South,178,8.1,-999.9,31,-99.99,,,-99.99,,2013-04-08 20:06:00,
2013-04-08 16:12:00,71.6,39.2,29.88,South,185,11.5,-999.9,31,-99.99,,,-99.99,,2013-04-08 20:12:00,
2013-04-08 16:18:00,71.6,39.2,29.88,South,185,11.5,-999.9,31,-99.99,,,-99.99,,2013-04-08 20:18:00,
2013-04-08 16:24:00,71.6,39.2,29.88,SSW,192,5.8,-999.9,31,-99.99,,,-99.99,,2013-04-08 20:24:00,
2013-04-08 16:30:00,71.6,39.2,29.88,SSW,192,5.8,-999.9,31,-99.99,,,-99.99,,2013-04-08 20:30:00,
2013-04-08 16:36:00,71.6,39.2,29.88,South,187,8.1,-999.9,31,-99.99,,,-99.99,,2013-04-08 20:36:00,
2013-04-08 16:46:00,71.6,41.0,29.88,South,173,11.5,-999.9,33,-99.99,,,-99.99,,2013-04-08 20:46:00,
2013-04-08 16:54:00,69.8,41.0,29.88,SSW,197,11.5,-999.9,35,-99.99,,,-99.99,,2013-04-08 20:54:00,
2013-04-08 17:00:00,69.8,41.0,29.88,SSW,197,11.5,-999.9,35,-99.99,,,-99.99,,2013-04-08 21:00:00,
2013-04-08 17:06:00,69.8,41.0,29.88,South,179,12.7,-999.9,35,-99.99,,,-99.99,,2013-04-08 21:06:00,
2013-04-08 17:12:00,68.0,41.0,29.89,SSW,196,10.4,-999.9,37,-99.99,,,-99.99,,2013-04-08 21:12:00,
2013-04-08 17:18:00,68.0,41.0,29.89,SSW,196,10.4,-999.9,37,-99.99,,,-99.99,,2013-04-08 21:18:00,
2013-04-08 17:24:00,68.0,41.0,29.89,South,182,8.1,-999.9,37,-99.99,,,-99.99,,2013-04-08 21:24:00,
2013-04-08 17:30:00,68.0,41.0,29.89,South,182,8.1,-999.9,37,-99.99,,,-99.99,,2013-04-08 21:30:00,
2013-04-08 17:36:00,68.0,41.0,29.89,South,179,13.8,-999.9,37,-99.99,,,-99.99,,2013-04-08 21:36:00,
2013-04-08 17:42:00,66.2,39.2,29.90,South,178,11.5,-999.9,37,-99.99,,,-99.99,,2013-04-08 21:42:00,
2013-04-08 17:48:00,66.2,39.2,29.90,South,178,11.5,-999.9,37,-99.99,,,-99.99,,2013-04-08 21:48:00,
2013-04-08 17:54:00,66.2,41.0,29.90,South,184,11.5,-999.9,40,-99.99,,,-99.99,,2013-04-08 21:54:00,
2013-04-08 18:00:00,66.2,41.0,29.90,South,184,11.5,-999.9,40,-99.99,,,-99.99,,2013-04-08 22:00:00,
2013-04-08 18:06:00,64.4,41.0,29.90,SSW,193,10.4,-999.9,42,-99.99,,,-99.99,,2013-04-08 22:06:00,
2013-04-08 18:12:00,64.4,41.0,29.90,South,177,11.5,-999.9,42,-99.99,,,-99.99,,2013-04-08 22:12:00,
2013-04-08 18:18:00,64.4,41.0,29.90,South,177,11.5,-999.9,42,-99.99,,,-99.99,,2013-04-08 22:18:00,
2013-04-08 18:24:00,64.4,41.0,29.90,South,179,15.0,-999.9,42,-99.99,,,-99.99,,2013-04-08 22:24:00,
2013-04-08 18:30:00,64.4,41.0,29.90,South,179,15.0,-999.9,42,-99.99,,,-99.99,,2013-04-08 22:30:00,
2013-04-08 18:36:00,64.4,41.0,29.91,South,180,18.4,-999.9,42,-99.99,,,-99.99,,2013-04-08 22:36:00,
2013-04-08 18:44:00,62.6,41.0,29.91,South,188,13.8,-999.9,45,-99.99,,,-99.99,,2013-04-08 22:44:00,
2013-04-08 18:54:00,62.6,41.0,29.91,SSE,164,10.4,-999.9,45,-99.99,,,-99.99,,2013-04-08 22:54:00,
2013-04-08 19:00:00,62.6,41.0,29.91,SSE,164,10.4,-999.9,45,-99.99,,,-99.99,,2013-04-08 23:00:00,
2013-04-08 19:06:00,62.6,41.0,29.91,South,180,12.7,-999.9,45,-99.99,,,-99.99,,2013-04-08 23:06:00,
2013-04-08 19:14:00,62.6,41.0,29.91,South,178,4.6,-999.9,45,-99.99,,,-99.99,,2013-04-08 23:14:00,
2013-04-08 19:20:00,62.6,41.0,29.91,South,178,4.6,-999.9,45,-99.99,,,-99.99,,2013-04-08 23:20:00,
2013-04-08 19:26:00,62.6,42.8,29.91,SSE,152,10.4,-999.9,48,-99.99,,,-99.99,,2013-04-08 23:26:00,
2013-04-08 19:34:00,62.6,42.8,29.91,South,180,8.1,-999.9,48,-99.99,,,-99.99,,2013-04-08 23:34:00,
2013-04-08 19:40:00,62.6,42.8,29.91,South,180,8.1,-999.9,48,-99.99,,,-99.99,,2013-04-08 23:40:00,
2013-04-08 19:46:00,62.6,42.8,29.92,SSE,150,1.2,-999.9,48,-99.99,,,-99.99,,2013-04-08 23:46:00,
2013-04-08 19:54:00,62.6,42.8,29.92,South,178,9.2,-999.9,48,-99.99,,,-99.99,,2013-04-08 23:54:00,
2013-04-08 20:00:00,62.6,42.8,29.92,South,178,9.2,-999.9,48,-99.99,,,-99.99,,2013-04-09 00:00:00,
2013-04-08 20:06:00,60.8,41.0,29.92,South,178,4.6,-999.9,48,-99.99,,,-99.99,,2013-04-09 00:06:00,
2013-04-08 20:14:00,60.8,42.8,29.92,South,179,5.8,-999.9,52,-99.99,,,-99.99,,2013-04-09 00:14:00,
2013-04-08 20:20:00,60.8,42.8,29.92,South,179,5.8,-999.9,52,-99.99,,,-99.99,,2013-04-09 00:20:00,
2013-04-08 21:14:00,59.0,46.4,29.93,SE,146,13.8,-999.9,63,-99.99,,,-99.99,,2013-04-09 01:14:00,
2013-04-08 21:20:00,59.0,46.4,29.93,SE,146,13.8,-999.9,63,-99.99,,,-99.99,,2013-04-09 01:20:00,
2013-04-08 21:26:00,59.0,46.4,29.94,South,190,5.8,-999.9,63,-99.99,,,-99.99,,2013-04-09 01:26:00,
2013-04-08 21:34:00,57.2,44.6,29.94,SE,146,6.9,-999.9,63,-99.99,,,-99.99,,2013-04-09 01:34:00,
2013-04-08 21:40:00,57.2,44.6,29.94,SE,146,6.9,-999.9,63,-99.99,,,-99.99,,2013-04-09 01:40:00,
2013-04-08 21:46:00,57.2,46.4,29.94,SE,140,5.8,-999.9,67,-99.99,,,-99.99,,2013-04-09 01:46:00,
2013-04-08 21:52:00,57.2,46.4,29.94,SE,136,3.5,-999.9,67,-99.99,,,-99.99,,2013-04-09 01:52:00,
2013-04-08 21:58:00,57.2,46.4,29.94,SE,136,3.5,-999.9,67,-99.99,,,-99.99,,2013-04-09 01:58:00,
2013-04-08 22:04:00,57.2,46.4,29.93,SSE,151,9.2,-999.9,67,-99.99,,,-99.99,,2013-04-09 02:04:00,
2013-04-08 22:10:00,57.2,46.4,29.93,SSE,151,9.2,-999.9,67,-99.99,,,-99.99,,2013-04-09 02:10:00,
2013-04-08 22:16:00,55.4,46.4,29.93,SE,144,6.9,-999.9,72,-99.99,,,-99.99,,2013-04-09 02:16:00,
2013-04-08 22:22:00,55.4,46.4,29.90,SE,138,9.2,-999.9,72,-99.99,,,-99.99,,2013-04-09 02:22:00,
2013-04-08 22:28:00,55.4,46.4,29.90,SE,138,9.2,-999.9,72,-99.99,,,-99.99,,2013-04-09 02:28:00,
2013-04-08 22:34:00,55.4,46.4,29.93,ESE,111,1.2,-999.9,72,-99.99,,,-99.99,,2013-04-09 02:34:00,
2013-04-08 22:40:00,55.4,46.4,29.93,ESE,111,1.2,-999.9,72,-99.99,,,-99.99,,2013-04-09 02:40:00,
2013-04-08 22:46:00,57.2,48.2,29.93,North,0,0.0,-999.9,72,-99.99,,,-99.99,,2013-04-09 02:46:00,
2013-04-08 22:52:00,57.2,46.4,29.93,South,186,5.8,-999.9,67,-99.99,,,-99.99,,2013-04-09 02:52:00,
2013-04-08 22:58:00,57.2,46.4,29.93,South,186,5.8,-999.9,67,-99.99,,,-99.99,,2013-04-09 02:58:00,
2013-04-08 23:04:00,57.2,48.2,29.93,North,0,0.0,-999.9,72,-99.99,,,-99.99,,2013-04-09 03:04:00,
2013-04-08 23:10:00,57.2,48.2,29.93,North,0,0.0,-999.9,72,-99.99,,,-99.99,,2013-04-09 03:10:00,
2013-04-08 23:16:00,55.4,46.4,29.93,SSE,148,4.6,-999.9,72,-99.99,,,-99.99,,2013-04-09 03:16:00,
2013-04-08 23:24:00,55.4,46.4,29.93,SE,144,1.2,-999.9,72,-99.99,,,-99.99,,2013-04-09 03:24:00,
2013-04-08 23:34:00,55.4,48.2,29.92,SE,145,5.8,-999.9,77,-99.99,,,-99.99,,2013-04-09 03:34:00,
2013-04-08 23:40:00,55.4,48.2,29.92,SE,145,5.8,-999.9,77,-99.99,,,-99.99,,2013-04-09 03:40:00,
2013-04-08 23:46:00,55.4,48.2,29.92,SSE,148,6.9,-999.9,77,-99.99,,,-99.99,,2013-04-09 03:46:00,
2013-04-08 23:56:00,55.4,48.2,29.91,SSE,154,5.8,-999.9,77,-99.99,,,-99.99,,2013-04-09 03:56:00,